FW8269 Weather Reports


time (UTC)temp
F
wind
direction
speed
knots
gust
knots
rain 1hr
in
rain 24hr
in
rain mn
in
humidity
%
barometer
mb
20260505081546 76 0 0.0 0.0 0.00 0.00 0.00 87 1014.7
20260505080047 76 0 0.0 0.0 0.00 0.00 0.00 87 1014.6
20260505074545 76 0 0.0 0.0 0.00 0.00 0.00 87 1014.6
20260505073044 76 11 2.6 3.5 0.00 0.00 0.00 86 1014.6
20260505071550 77 0 0.0 0.0 0.00 0.00 0.00 86 1014.6
20260505070040 77 0 0.0 0.0 0.00 0.00 0.00 86 1014.7
20260505064538 76 0 0.0 0.0 0.00 0.00 0.00 86 1014.8
20260505063049 77 0 0.0 0.0 0.00 0.00 0.00 85 1014.9
20260505061546 77 0 0.0 0.0 0.00 0.00 0.00 84 1014.9
20260505060043 77 0 0.0 0.0 0.00 0.00 0.00 84 1015.1
20260505054546 78 0 0.0 0.0 0.00 0.00 0.00 84 1015.3
20260505053049 78 0 0.0 0.0 0.00 0.00 0.00 84 1015.5
20260505051542 78 0 0.0 0.0 0.00 0.00 0.00 84 1015.6
20260505041539 79 15 1.7 4.3 0.00 0.00 0.00 83 1016.3
20260505040040 78 26 3.5 6.1 0.00 0.00 0.00 83 1016.5
20260505034545 78 23 4.3 6.1 0.00 0.00 0.00 83 1016.6
20260505033040 79 27 4.3 6.1 0.00 0.00 0.00 83 1016.5
20260505031544 79 27 3.5 5.2 0.00 0.00 0.00 83 1016.7
20260505030041 80 28 3.5 6.1 0.00 0.00 0.00 82 1016.6
20260505024539 80 32 3.5 5.2 0.00 0.00 0.00 82 1016.6
20260505023050 79 27 4.3 6.1 0.00 0.00 0.00 84 1016.4
20260505021544 79 37 3.5 5.2 0.00 0.00 0.00 85 1016.4
20260505020040 79 39 3.5 6.1 0.00 0.00 0.00 85 1016.2
20260505014540 79 51 4.3 7.0 0.00 0.00 0.00 86 1016.0
20260505013045 79 54 3.5 7.0 0.00 0.00 0.00 86 1016.1
20260505011548 79 51 4.3 6.1 0.00 0.00 0.00 86 1015.9
20260505004540 80 54 3.5 5.2 0.00 0.00 0.00 85 1015.4
20260505003043 80 56 3.5 5.2 0.00 0.00 0.00 85 1015.4
20260505001539 81 63 2.6 5.2 0.00 0.00 0.00 84 1015.4
20260505000048 81 68 2.6 4.3 0.00 0.00 0.00 84 1015.4
20260504234543 81 71 4.3 7.0 0.00 0.00 0.00 84 1015.3
20260504233040 81 82 3.5 5.2 0.00 0.00 0.00 84 1015.3
20260504231547 81 93 3.5 7.8 0.00 0.00 0.00 83 1015.1
20260504230044 82 109 5.2 8.7 0.00 0.00 0.00 83 1015.2
20260504224538 82 68 6.1 8.7 0.00 0.00 0.00 83 1015.0
20260504223050 82 71 4.3 10.4 0.00 0.00 0.00 82 1014.6
20260504221554 82 94 5.2 11.3 0.00 0.00 0.00 82 1014.3
20260504220042 82 102 4.3 9.6 0.00 0.00 0.00 82 1014.4
20260504214539 83 101 7.0 10.4 0.00 0.00 0.00 81 1014.1
20260504213059 83 86 7.0 10.4 0.00 0.00 0.00 80 1014.0
20260504211547 83 89 5.2 9.6 0.00 0.00 0.00 79 1014.1
20260504210041 84 102 7.0 9.6 0.00 0.00 0.00 77 1014.2
20260504204538 83 101 5.2 9.6 0.00 0.00 0.00 78 1014.0
20260504203048 83 127 5.2 10.4 0.00 0.00 0.00 78 1014.2
20260504201538 83 112 7.0 11.3 0.00 0.00 0.00 78 1014.4
20260504200044 84 102 8.7 12.2 0.00 0.00 0.00 78 1014.4
20260504194545 84 106 7.0 13.9 0.00 0.00 0.00 79 1014.5
20260504193039 84 103 10.4 14.8 0.00 0.00 0.00 79 1014.6
20260504191541 84 108 10.4 15.6 0.00 0.00 0.00 77 1014.3
20260504190039 84 111 9.6 13.0 0.00 0.00 0.00 78 1014.7
20260504184543 85 97 8.7 13.0 0.00 0.00 0.00 78 1014.9
20260504183043 85 99 8.7 14.8 0.00 0.00 0.00 78 1015.1
20260504181539 84 106 9.6 14.8 0.00 0.00 0.00 78 1015.1
20260504180046 84 113 10.4 14.8 0.00 0.00 0.00 77 1015.3
20260504174543 84 89 10.4 15.6 0.00 0.00 0.00 77 1015.5
20260504173040 84 111 11.3 16.5 0.00 0.00 0.00 77 1015.6
20260504171539 85 89 11.3 17.4 0.00 0.00 0.00 77 1015.9